Location: Karlsruhe
(49.0131°N, 8.3874°E)
Time: 13:05:14
(UTC+01:00)

Tiangong 2 - Visible Passes

Search period start: 21 November 2017 00:00
Search period end: 01 December 2017 00:00
Orbit: 386 x 392 km, 42.8° (Epoch: 20 November)

Date Brightness Start Highest point End Pass type
(mag) Time Alt. Az. Time Alt. Az. Time Alt. Az.
27 Nov 4.1 06:50:20 10° S 06:51:57 13° SSE 06:53:34 10° SE visible
29 Nov 3.7 06:29:47 10° SSW 06:32:03 18° SSE 06:34:20 10° ESE visible
30 Nov 3.8 05:33:28 13° S 05:34:02 14° SSE 05:35:45 10° SE visible
30 Nov 3.1 07:07:32 10° SW 07:10:15 25° S 07:12:58 10° ESE visible
